Theta_e
311 312 313 312 312 313 314 314 314 314 313 313 312 312 311 310 310 310 310 312 313 314 314 314 314 313 314 314 314 314 314 315 319 320 319 317 313 314 314 313 313 313 314 315 317 319 317 318 318 319 318 319 322 320 324 320 325 328 332 339 333 328 330 327 329 327 328 330 328 329 328 328 328 329 329 330 332 336 337 336 336 337 337 337 337 337 336 334
311 312 313 313 313 313 314 314 314 314 314 314 313 313 313 312 311 312 313 314 314 314 314 314 314 314 314 314 314 315 314 316 322 322 316 314 312 312 313 312 314 315 316 316 318 320 318 319 318 320 319 320 322 320 323 320 326 328 334 344 336 327 330 326 327 327 328 330 328 330 329 328 328 328 329 330 332 336 337 337 337 337 337 336 335 335 334 332
312 313 314 314 314 314 314 314 314 314 314 314 314 314 314 313 312 313 314 314 314 314 314 314 314 315 315 315 315 314 317 322 324 320 315 315 314 314 314 315 316 316 316 316 318 320 320 320 320 321 320 321 322 320 322 322 328 327 332 342 336 326 329 326 326 327 327 328 328 328 327 328 328 328 328 329 332 335 337 337 337 337 337 335 334 335 334 332
311 313 315 315 315 315 314 314 314 314 314 314 314 314 314 314 313 314 314 314 315 314 315 315 315 315 314 315 315 315 322 326 321 317 316 315 316 315 315 315 316 315 316 317 318 320 320 321 321 320 320 321 320 320 323 322 327 327 327 333 330 325 327 326 327 327 326 326 327 327 326 327 328 328 328 329 332 335 337 335 335 336 336 335 335 336 335 333
312 314 316 317 317 316 316 315 315 315 314 314 314 314 314 314 314 314 314 315 315 315 315 316 316 316 315 315 315 319 324 322 315 317 316 315 315 315 315 314 315 314 316 318 319 320 320 321 320 321 321 321 320 320 323 323 326 327 326 327 326 327 327 326 327 326 326 326 326 328 328 328 328 327 328 330 332 334 335 334 334 333 335 336 335 335 335 335
312 314 317 318 319 318 318 317 317 316 315 315 314 315 314 314 314 314 315 315 315 315 315 316 316 317 316 315 317 322 325 318 315 318 315 315 315 314 315 314 315 315 316 318 320 321 320 321 321 322 321 321 320 321 324 325 326 327 327 327 327 326 327 327 327 325 326 326 327 328 328 327 328 329 330 332 332 333 332 333 333 332 334 336 335 335 335 336
311 314 317 319 320 320 320 319 318 317 316 315 314 314 314 314 314 315 315 315 315 316 316 316 317 316 316 318 322 325 324 316 317 317 315 316 315 315 315 315 315 316 317 319 320 321 320 320 321 321 321 321 320 322 326 327 327 329 326 326 327 326 327 327 326 327 326 326 326 327 328 326 329 330 331 332 331 331 332 333 333 333 334 335 335 335 335 334
311 314 317 319 320 321 321 320 319 317 316 315 315 314 314 314 314 315 316 316 316 316 317 317 317 317 316 320 326 325 319 317 319 317 316 316 315 316 315 315 317 318 319 320 321 322 321 320 321 320 321 321 320 325 327 326 326 326 325 325 326 325 325 325 326 328 326 325 326 326 329 328 330 332 333 334 332 329 331 332 332 333 334 334 334 334 332 331
311 313 316 319 320 321 321 320 319 318 316 315 315 314 314 315 315 317 317 317 317 317 318 317 317 317 316 320 325 318 316 319 318 318 317 317 318 318 319 320 320 319 321 321 321 321 320 320 320 320 320 320 323 328 327 327 326 325 325 326 325 325 325 325 326 326 325 326 326 328 329 329 330 332 335 335 333 330 330 331 331 332 333 333 332 331 330 329
311 313 316 318 320 321 321 320 319 318 317 315 314 314 315 316 316 318 319 319 319 318 318 317 318 317 317 322 324 317 317 318 319 320 320 320 321 321 322 322 321 320 321 321 320 320 320 320 320 321 322 321 324 328 326 327 329 326 325 326 326 326 325 325 326 325 325 325 326 329 328 328 328 330 336 334 333 332 331 332 333 333 333 332 330 331 330 329
310 313 316 319 320 321 321 321 319 318 316 315 315 315 315 316 318 319 319 318 319 319 318 318 318 317 320 325 322 317 318 318 319 319 320 321 321 321 322 321 319 320 321 320 320 320 320 320 321 321 321 321 323 325 323 325 328 325 324 327 327 326 326 326 325 325 325 325 326 328 326 327 327 329 334 335 334 335 334 333 333 333 333 332 330 331 331 330
310 314 316 319 320 320 321 321 320 318 316 316 315 315 316 318 320 319 318 316 318 318 317 318 317 318 323 325 318 318 318 319 319 319 320 320 320 320 319 319 319 320 320 320 321 320 320 320 321 321 320 322 324 324 322 324 326 325 330 331 328 326 327 326 324 325 324 326 327 326 327 329 327 328 329 332 335 335 334 334 333 331 331 330 331 330 331 330
310 314 317 319 320 320 321 321 320 319 318 318 317 317 318 320 320 319 317 316 317 317 317 318 317 320 326 323 315 319 319 318 319 319 320 320 320 319 318 319 319 319 320 319 320 319 320 320 320 320 319 321 324 323 323 326 326 326 330 330 328 326 326 324 323 324 322 324 325 325 328 329 328 327 328 329 332 331 332 334 331 329 330 329 330 330 330 330
310 314 317 319 320 320 320 321 321 321 320 319 319 319 320 321 319 317 316 316 317 316 318 317 316 322 326 318 316 320 319 319 319 319 319 320 320 319 319 319 318 319 319 319 320 319 320 320 321 320 319 321 322 320 322 327 326 325 326 327 330 327 326 326 324 323 326 324 322 324 325 327 329 327 327 328 329 330 331 331 329 329 330 329 329 330 330 330
310 314 316 319 320 320 319 320 321 321 320 320 320 320 320 320 318 317 316 315 316 316 317 317 318 323 323 316 317 318 318 320 319 319 319 320 320 319 319 319 319 319 319 320 319 319 320 320 320 320 320 321 320 324 328 326 324 326 325 326 331 329 326 327 324 323 328 327 322 322 323 327 330 328 328 327 327 330 329 328 329 330 329 330 329 329 329 329
310 313 317 319 320 320 319 319 320 321 321 321 320 319 320 319 317 316 316 316 316 316 317 319 322 325 320 316 318 318 319 319 317 319 319 319 320 319 319 319 319 319 319 320 319 319 320 319 320 319 321 321 318 328 329 322 323 328 325 322 327 327 323 324 324 323 326 325 322 323 324 329 331 329 329 328 327 329 329 328 330 329 329 329 329 329 328 327
309 313 316 319 320 320 319 318 319 321 322 321 320 320 320 320 319 317 317 316 316 317 320 322 324 323 319 318 318 318 319 318 317 318 318 318 319 318 320 319 319 320 319 320 320 320 319 318 320 318 319 322 319 325 320 317 326 330 323 320 322 323 321 321 323 324 324 323 322 323 327 330 330 329 330 329 328 330 330 328 329 328 328 328 328 328 327 327
308 312 316 318 320 321 320 318 319 321 323 321 320 320 320 320 320 320 319 318 318 321 323 324 324 322 318 318 318 318 319 318 317 318 318 318 319 319 320 320 319 320 319 319 319 318 319 318 319 319 319 320 320 323 315 314 325 324 317 317 319 320 320 320 321 324 324 323 324 325 327 329 329 329 329 328 329 330 329 328 328 328 328 329 328 327 327 327
307 310 314 318 320 320 320 319 320 322 323 323 320 321 322 321 321 322 323 323 321 322 323 322 322 320 318 318 319 319 320 319 319 319 318 317 318 319 320 320 319 319 319 319 318 318 319 318 318 318 319 320 319 322 318 315 320 319 316 316 316 317 318 321 322 324 323 322 326 326 326 330 330 330 330 328 328 328 328 329 330 329 328 329 329 330 329 327
305 309 313 317 319 320 320 319 321 324 325 324 323 325 327 324 323 323 324 323 321 321 320 319 320 319 319 319 320 320 320 320 319 319 319 318 319 319 319 319 319 319 319 320 319 319 318 321 323 319 319 321 318 319 319 318 318 318 317 315 315 316 318 322 324 324 324 323 325 326 325 329 330 330 330 329 328 328 328 330 331 329 331 331 330 333 334 331
304 307 311 316 319 320 320 319 321 325 326 326 326 328 327 327 328 327 325 321 319 321 320 319 320 319 320 321 320 321 321 320 320 319 319 319 319 320 318 318 319 319 320 319 319 319 318 324 326 323 319 320 318 319 318 318 320 318 318 317 316 316 317 322 324 323 324 323 324 324 323 326 328 328 330 330 329 329 328 330 331 330 334 337 331 332 333 332
304 306 309 313 317 320 320 319 321 324 325 327 330 328 325 327 329 328 327 325 321 321 321 320 320 319 320 321 321 321 321 320 320 319 320 320 320 320 317 318 320 319 319 318 320 322 321 322 324 320 319 319 318 320 320 319 320 319 319 317 315 317 319 321 322 323 322 322 322 322 325 327 330 329 329 330 330 330 329 330 331 329 332 334 331 330 332 333
304 305 308 312 316 318 319 319 321 325 326 328 327 325 325 327 329 327 328 328 323 320 320 320 320 319 319 320 320 320 320 319 320 319 321 321 320 320 319 319 320 319 319 320 321 320 319 321 321 319 318 318 318 319 320 320 319 319 318 316 315 317 318 317 319 321 320 321 322 323 326 328 330 330 330 331 330 329 328 328 329 329 330 330 330 331 332 336
305 304 307 312 314 317 319 319 322 325 326 326 323 324 326 327 329 328 327 327 322 320 321 320 320 319 318 320 320 320 319 319 319 319 320 321 320 320 320 320 320 319 319 320 320 319 320 321 319 318 318 319 319 319 320 319 318 319 318 317 317 317 318 318 319 321 320 321 324 321 320 322 328 330 330 330 328 328 327 327 328 329 330 330 331 330 330 335
305 304 308 312 314 316 317 318 323 323 324 325 324 325 325 326 330 328 329 329 323 321 323 321 321 320 319 321 321 320 319 319 319 319 320 321 320 320 320 320 320 320 320 319 320 319 319 320 318 318 320 319 319 319 320 317 316 317 319 320 319 318 318 317 318 319 316 317 322 320 316 318 325 328 329 329 329 328 327 326 328 329 329 329 331 330 330 332
306 305 307 312 314 315 318 323 324 321 323 325 324 325 325 327 329 329 333 329 319 319 323 321 321 321 320 321 321 321 320 320 320 320 321 320 320 321 320 319 320 320 320 320 321 319 318 320 319 318 320 320 320 320 320 318 315 314 318 320 320 318 317 317 318 315 312 314 320 321 317 316 321 324 326 328 328 327 326 328 330 331 330 329 330 331 331 331
306 305 307 312 314 314 320 325 324 322 325 325 324 325 326 329 330 330 333 324 316 318 322 321 321 320 320 321 320 322 320 320 322 320 320 320 320 321 321 320 320 319 319 320 319 318 318 319 319 319 320 320 319 319 319 319 315 314 319 319 318 318 317 317 316 314 313 315 317 319 318 315 319 324 325 325 325 325 326 329 330 330 330 330 331 331 331 330
306 305 307 312 313 313 317 319 322 327 327 325 325 325 327 330 330 331 330 322 320 322 323 321 321 321 321 322 321 321 320 321 322 321 320 321 321 321 321 320 320 319 320 320 317 317 319 319 318 319 320 319 318 318 318 318 315 316 319 318 317 317 318 317 315 314 315 314 312 317 318 315 317 323 325 323 324 324 326 329 329 329 329 329 330 330 330 329
305 306 309 312 315 319 319 318 323 327 325 326 327 327 329 331 331 332 326 320 323 323 323 322 322 321 322 322 321 321 320 319 320 321 320 321 321 320 319 319 320 319 319 319 318 319 318 318 317 317 318 318 318 318 318 317 316 317 317 317 318 319 319 319 317 315 315 315 313 315 318 317 316 318 321 324 323 324 327 328 328 328 328 329 329 329 329 329
305 307 309 312 322 328 325 322 325 325 325 327 328 329 331 330 330 329 321 321 323 322 323 323 322 322 322 322 321 320 320 320 320 321 320 320 320 320 319 320 321 320 320 320 319 319 319 319 317 317 317 317 318 319 319 318 317 319 319 318 319 320 320 320 319 317 315 316 315 314 318 320 316 315 320 324 324 325 328 328 328 327 327 328 329 328 327 327
305 309 309 311 319 323 323 326 327 327 327 328 329 331 333 331 329 323 320 322 322 322 322 323 322 321 322 323 321 319 320 320 320 321 321 320 320 321 321 320 321 321 320 321 320 319 320 320 318 318 317 317 320 320 320 320 319 320 320 318 318 317 317 316 316 317 316 315 315 314 316 316 314 316 321 325 325 325 327 329 329 328 326 328 328 326 326 326
307 309 310 311 313 315 322 328 329 327 327 328 331 333 332 331 325 319 320 320 318 321 324 323 322 321 322 322 321 320 320 319 319 320 320 320 320 320 319 320 322 320 316 316 318 319 321 320 318 319 319 319 319 319 319 320 320 321 318 315 315 315 314 313 313 313 314 314 314 315 314 312 315 319 322 325 325 324 324 326 328 328 326 326 327 325 325 325
310 311 312 313 313 317 325 327 328 327 327 330 332 332 332 325 318 317 319 319 320 324 323 322 321 320 322 323 321 320 320 319 318 319 319 320 322 320 318 319 322 320 316 316 315 315 318 320 319 319 320 320 319 316 315 316 317 319 316 313 314 316 314 314 313 313 313 312 312 315 314 313 317 320 321 324 324 324 324 323 325 326 324 323 324 324 326 326
313 315 315 316 314 317 321 324 326 325 326 332 332 333 332 321 317 318 319 320 325 324 321 321 321 319 321 323 321 321 322 319 319 320 321 323 324 322 320 320 319 320 321 318 314 312 313 316 319 318 317 318 318 317 316 317 318 320 319 317 316 314 314 315 314 314 314 313 313 314 313 313 316 319 322 323 322 323 324 324 324 324 323 323 322 323 324 324
319 320 317 319 320 320 321 324 327 324 327 334 333 332 328 318 317 320 321 322 323 322 321 321 321 321 321 322 322 323 322 320 319 320 322 323 322 321 321 320 319 320 321 318 315 314 312 314 319 318 317 318 317 317 318 319 318 319 321 320 315 314 314 314 315 314 314 315 315 312 313 316 319 321 323 323 323 323 322 323 323 322 324 324 323 322 322 322
321 326 322 324 329 329 327 326 328 328 330 334 333 329 325 321 323 322 323 325 322 322 324 319 320 321 319 322 324 323 321 318 319 320 320 320 320 320 320 319 318 318 320 320 318 316 313 316 320 319 320 320 317 316 319 318 317 319 319 316 316 318 317 314 314 315 316 316 314 312 313 316 319 322 323 322 323 323 322 322 322 322 323 323 323 323 322 322
318 328 327 328 331 330 328 327 328 329 330 332 331 329 326 323 325 322 322 324 322 324 324 319 320 321 319 320 323 323 320 318 319 319 319 319 320 321 321 320 319 318 319 321 320 319 317 316 320 319 319 319 318 318 320 320 319 319 317 316 317 320 320 317 315 315 316 315 313 312 311 314 318 321 321 321 322 323 322 322 322 323 323 322 323 324 323 322
318 326 326 329 330 328 328 328 328 329 330 331 331 330 328 323 322 321 320 321 321 322 322 321 323 323 321 319 321 323 320 317 319 319 318 319 320 321 321 322 320 318 318 320 319 320 319 316 319 320 319 318 319 321 322 323 324 322 319 319 319 318 318 318 315 315 317 316 314 312 311 315 319 319 320 322 322 322 322 322 322 322 321 321 323 323 323 324
325 327 324 328 329 328 328 327 328 329 329 331 330 329 326 322 321 320 320 320 321 321 322 325 326 324 322 321 322 326 321 318 321 320 318 319 320 320 320 322 322 319 318 319 319 319 321 318 317 320 320 319 321 323 319 320 323 323 323 323 322 320 318 315 315 317 317 316 316 314 313 317 320 319 320 322 322 322 322 322 322 322 322 322 322 322 323 324
331 328 327 330 328 329 329 326 328 329 329 330 330 328 323 321 321 320 319 320 322 322 324 326 325 323 323 322 323 326 324 321 321 320 319 319 320 321 321 321 323 321 318 319 320 319 320 320 317 318 320 321 321 322 319 319 321 320 321 321 320 320 320 317 317 317 316 316 317 316 315 319 322 322 323 323 322 322 322 322 323 323 322 322 322 323 323 324
324 322 331 333 330 330 329 327 329 328 328 330 330 327 323 321 321 320 319 320 320 322 323 323 324 324 325 324 323 325 325 323 321 319 320 320 319 321 322 321 321 321 321 322 322 319 318 319 317 317 320 320 320 321 319 320 321 319 319 319 319 320 320 318 318 318 317 316 316 317 317 320 324 324 324 324 323 323 322 323 324 322 322 322 322 323 324 325
322 320 331 332 328 329 326 326 328 326 327 330 328 326 322 320 320 320 319 319 320 321 320 320 323 325 326 326 326 326 324 323 322 320 320 322 322 322 322 320 319 319 321 322 322 319 318 319 317 316 319 321 322 320 319 320 320 320 321 322 323 322 320 318 319 320 319 316 315 316 316 321 325 324 324 325 324 324 324 324 323 321 322 322 322 323 323 324
324 324 332 330 325 327 326 324 326 327 328 328 325 324 321 318 319 319 319 318 319 321 321 321 323 323 325 326 327 326 324 323 324 322 320 322 322 321 321 319 317 318 321 323 323 321 319 320 318 315 318 321 321 321 323 323 322 322 324 325 323 322 323 322 321 321 320 318 317 317 316 320 326 324 323 324 324 324 324 323 322 322 322 323 322 322 323 324
321 324 331 330 327 326 324 323 325 328 328 326 325 324 321 319 320 319 319 319 319 320 321 323 323 322 324 324 324 325 324 323 323 322 321 323 322 321 320 317 317 319 322 324 323 320 318 320 318 315 315 318 321 323 325 325 325 323 325 327 325 325 326 325 322 321 320 319 320 319 317 319 324 324 323 323 323 324 323 322 322 323 323 322 322 323 323 324
321 322 323 329 330 325 321 321 324 327 327 326 326 324 322 321 320 321 321 320 320 321 322 324 323 321 322 322 324 326 325 324 325 323 321 323 323 320 319 317 318 320 322 323 322 319 319 322 320 316 317 320 322 323 323 322 323 323 324 325 326 327 328 325 322 320 319 321 322 320 319 321 324 325 323 322 323 324 324 323 322 323 323 322 324 325 324 324
322 324 319 323 327 322 320 321 321 324 326 328 327 324 324 322 321 321 321 321 321 319 322 323 322 322 323 323 324 326 324 323 326 325 322 323 323 320 319 319 319 322 323 321 320 319 321 323 320 319 321 323 322 324 325 322 320 321 322 323 324 325 326 326 324 320 321 323 321 320 324 325 324 324 323 323 324 324 324 324 322 323 323 323 325 325 324 324
322 324 322 324 326 320 320 319 318 321 324 326 326 324 323 323 323 322 319 320 322 320 320 322 321 323 324 324 325 326 324 322 323 324 323 324 324 321 319 318 321 325 324 319 317 320 322 322 322 321 322 324 324 324 324 322 321 321 322 323 324 324 324 326 325 322 323 323 318 319 326 325 322 323 323 324 325 325 324 324 323 324 324 323 324 323 322 323
323 324 324 328 329 323 321 320 320 321 320 322 325 325 323 323 324 325 321 319 321 321 321 321 322 322 323 324 325 326 327 324 322 323 324 325 326 323 320 318 321 325 323 319 319 322 323 323 325 323 321 323 325 323 322 322 323 323 324 324 325 326 326 327 326 324 323 323 322 323 326 324 322 323 324 324 325 324 324 324 323 324 323 323 323 322 321 322
325 328 327 330 330 326 325 325 325 324 322 321 322 324 324 323 324 326 325 322 322 322 321 322 323 321 321 324 325 326 327 324 322 324 326 326 327 325 323 323 323 323 322 322 324 324 323 324 326 324 320 322 325 323 322 322 321 323 325 325 325 327 329 329 328 326 325 325 325 324 324 323 323 324 325 324 325 325 324 324 324 323 323 322 322 321 321 321
327 329 329 329 329 329 327 326 327 326 324 323 321 322 325 325 325 326 326 326 324 323 322 322 322 321 321 324 325 326 328 326 325 327 326 326 327 325 325 326 326 325 322 324 327 325 323 323 326 323 319 320 324 324 323 323 322 323 324 325 327 330 331 333 332 329 326 323 322 322 322 322 323 324 324 323 325 325 323 323 324 323 322 322 321 321 321 321
328 327 325 322 322 326 326 324 325 325 323 323 322 322 324 325 325 326 327 327 326 324 323 322 322 322 322 324 324 325 327 328 328 326 324 325 325 324 325 325 326 327 325 325 328 327 324 323 323 322 318 318 323 325 324 324 323 324 325 330 335 331 326 327 329 327 325 324 323 322 320 320 321 322 322 323 324 323 321 322 324 324 323 322 322 322 322 322
328 326 324 323 322 322 323 323 325 323 321 323 322 323 324 323 323 325 327 327 325 324 324 324 324 323 324 325 325 325 326 327 327 325 323 322 322 322 323 323 323 325 325 327 327 327 325 323 321 321 318 317 322 324 323 321 321 322 325 331 334 328 321 323 325 324 326 326 322 321 320 320 321 322 322 323 322 321 321 322 322 323 323 322 322 322 322 322
Wind_Speed
20 19 18 16 14 13 12 12 11 10 10 9 9 9 9 10 10 10 10 9 10 9 9 9 8 8 6 6 5 5 7 7 8 12 9 3 4 2 1 2 4 3 3 5 9 11 8 9 9 10 10 8 8 6 5 2 7 7 6 4 1 4 4 3 2 4 9 7 4 3 3 9 10 11 11 11 13 13 13 12 12 13 12 13 12 12 11 8
20 19 17 15 14 12 12 11 11 10 10 10 10 11 11 11 11 11 10 10 10 10 9 8 8 7 6 5 4 5 5 7 12 10 1 3 1 1 0 1 3 3 5 8 11 13 9 7 8 9 7 7 7 4 5 4 7 6 5 3 2 4 3 3 6 7 8 6 4 1 2 6 9 10 10 11 13 12 13 11 11 14 12 10 10 9 9 10
19 18 16 15 13 12 11 11 11 10 10 11 11 11 12 12 12 12 12 12 12 11 10 9 8 6 6 5 3 4 4 8 11 3 5 3 2 2 1 2 3 4 7 10 13 15 10 6 6 8 7 6 4 3 7 7 8 7 6 3 1 5 5 4 6 10 9 5 6 5 3 6 6 7 7 10 14 12 11 10 10 12 11 8 6 7 8 11
19 18 16 14 13 12 11 11 11 11 11 11 12 12 13 12 12 12 13 12 12 12 12 10 9 7 5 4 2 2 4 8 3 5 4 0 0 1 3 3 5 7 9 12 16 13 9 9 5 6 8 5 2 2 8 10 8 7 6 5 4 5 5 4 4 10 13 6 7 7 6 9 8 7 8 10 9 9 9 9 11 13 12 10 6 8 8 8
19 18 16 14 13 12 11 11 11 11 11 12 12 13 13 13 13 12 12 11 11 11 11 11 10 9 7 5 4 3 5 4 4 6 3 1 2 4 4 5 7 8 10 13 15 10 5 9 6 6 6 2 3 3 9 12 9 7 7 9 8 6 5 6 7 8 12 9 9 6 7 8 8 7 9 10 7 7 10 9 12 14 13 12 8 8 7 5
19 18 16 15 13 12 11 11 11 11 11 12 12 12 13 13 13 12 11 11 11 11 11 9 8 8 8 7 5 3 4 2 6 4 3 1 3 3 4 5 6 7 10 13 13 9 7 8 7 6 4 3 4 5 13 16 9 6 9 12 12 10 9 9 9 8 7 4 7 9 9 6 7 9 9 8 7 9 14 12 14 15 13 13 11 8 7 6
19 18 16 15 14 13 12 11 11 11 11 11 11 12 12 13 13 12 12 11 12 12 11 9 7 7 7 7 2 5 5 6 8 3 2 2 2 3 4 4 6 7 9 12 13 9 7 8 7 5 2 2 3 10 17 16 11 6 6 10 13 12 10 9 9 11 8 5 5 9 14 9 6 9 11 7 2 10 17 15 16 17 16 14 11 9 7 8
19 18 17 16 15 14 12 11 11 10 10 11 11 11 11 12 12 12 12 12 12 12 11 10 9 7 6 4 3 4 2 9 8 3 0 1 1 2 3 4 7 8 10 13 13 9 5 7 6 2 1 2 6 12 16 13 9 7 5 7 7 7 6 7 7 11 12 10 5 7 15 13 10 13 12 3 4 11 16 15 16 16 15 15 12 11 10 10
19 18 17 17 16 15 13 11 10 10 10 10 10 10 10 10 11 11 12 13 12 11 10 10 10 10 7 5 8 1 8 9 7 3 1 1 1 2 4 6 8 10 13 12 10 9 6 6 4 1 1 4 7 12 14 9 5 5 8 7 3 5 6 6 6 9 9 7 7 8 13 14 14 16 11 4 5 12 15 13 15 14 12 13 14 13 12 11
19 18 18 18 17 16 14 11 10 9 9 9 10 10 9 10 10 11 11 11 10 9 10 11 10 10 7 7 7 3 5 3 7 4 1 1 2 5 8 9 7 10 13 9 7 7 7 7 5 1 2 2 6 11 12 6 6 8 6 9 6 8 5 5 5 6 5 7 9 10 12 12 11 11 8 5 4 8 13 12 12 13 12 12 14 13 13 13
19 19 18 18 18 17 15 12 10 9 9 9 9 9 9 9 10 10 10 8 8 9 11 11 10 9 9 10 2 7 1 3 5 5 2 2 4 5 7 5 5 9 11 9 6 3 7 8 5 2 1 4 5 5 9 8 12 12 8 6 6 6 4 4 4 4 3 7 12 14 13 10 8 9 7 10 9 8 11 11 12 13 12 12 13 12 12 13
19 19 18 18 18 18 16 13 10 9 9 9 9 8 9 9 8 7 7 7 7 11 12 12 12 10 10 7 3 6 2 2 4 5 4 2 4 3 5 3 4 8 10 13 4 4 5 7 7 2 5 6 6 5 5 7 8 13 11 3 5 9 2 1 2 3 1 6 13 13 10 7 7 9 8 8 9 10 10 9 11 12 11 11 12 10 10 11
19 18 17 17 18 18 16 14 11 10 9 9 9 8 8 7 5 4 5 5 7 11 12 14 14 10 8 1 7 2 2 7 5 4 6 4 4 1 3 3 5 6 7 13 9 5 3 8 10 3 4 3 3 2 3 4 4 12 12 3 7 11 5 8 7 0 1 5 9 8 4 4 5 9 8 6 6 7 7 5 7 9 9 9 9 8 9 11
18 18 17 17 17 17 17 15 13 11 10 9 8 7 7 5 2 2 4 5 7 10 12 15 15 10 6 4 7 1 1 4 7 5 3 6 6 4 1 2 4 4 5 8 6 3 4 8 9 2 2 1 4 2 2 7 6 10 10 4 3 4 5 12 14 7 1 2 2 4 3 4 5 6 7 6 5 5 4 3 4 6 6 8 8 8 8 9
17 17 16 16 16 17 16 15 14 12 10 9 8 6 5 2 1 2 5 6 8 10 12 17 16 9 2 6 7 5 6 7 5 3 2 8 5 5 3 1 1 2 5 5 2 1 5 8 6 1 3 4 3 1 4 7 7 8 6 3 3 2 6 11 15 11 1 2 6 2 3 6 6 6 5 4 4 4 2 2 2 3 4 5 6 7 8 8
16 16 15 15 15 15 16 15 14 13 11 9 7 4 2 1 3 5 7 9 10 11 11 13 14 12 2 6 6 7 8 2 2 2 1 8 9 3 5 1 2 2 2 1 1 4 6 8 3 3 4 2 2 2 5 4 5 4 1 2 2 3 6 7 10 12 4 3 6 2 4 6 6 7 6 3 4 3 0 2 2 1 1 3 4 5 6 6
16 15 15 14 14 15 15 15 14 14 11 9 6 4 3 4 7 9 10 13 13 12 13 14 15 9 2 4 4 4 1 5 2 4 3 3 8 1 3 3 4 2 1 3 3 5 4 5 2 1 2 3 1 4 1 2 3 1 3 3 5 5 5 3 4 9 6 5 3 4 7 7 7 8 7 4 6 5 1 3 3 2 2 2 2 3 5 6
16 14 14 13 14 14 15 15 14 13 11 8 6 6 7 8 10 11 12 13 12 11 13 14 11 3 5 3 3 4 5 4 1 1 3 2 2 6 8 4 3 4 5 5 3 4 2 1 2 2 1 3 0 4 2 3 4 8 6 3 5 6 5 4 3 3 4 9 4 8 9 9 10 9 8 5 7 7 4 4 2 2 2 4 3 5 4 7
16 14 14 13 13 14 14 15 13 12 11 5 5 8 10 12 12 12 13 13 8 4 4 3 0 4 5 6 6 6 6 3 3 4 3 1 2 5 7 2 3 4 3 2 1 3 2 1 2 4 3 5 3 3 2 6 5 8 7 4 2 0 2 4 1 4 2 8 2 9 8 11 12 9 10 8 7 6 6 5 1 1 2 4 4 4 4 5
17 14 13 12 13 13 14 14 11 12 10 7 8 9 9 6 4 5 8 9 3 6 6 8 7 6 5 6 4 2 4 3 1 3 3 1 4 5 2 3 3 2 2 3 1 3 3 2 3 1 4 7 9 7 7 10 7 6 8 6 7 8 5 2 3 5 4 7 1 7 7 11 14 11 11 10 9 8 8 7 5 4 2 4 3 1 4 9
18 15 13 12 12 12 12 12 10 10 10 13 14 8 4 7 4 4 3 1 4 5 6 7 7 7 7 5 4 2 3 3 5 5 6 1 7 4 1 3 3 2 2 4 2 3 3 3 3 3 3 7 9 8 8 9 9 8 7 7 7 5 4 4 2 2 7 8 4 2 2 8 13 11 10 10 8 9 9 9 9 7 2 3 5 1 3 8
19 16 13 12 11 11 11 10 9 9 11 14 11 2 8 10 7 7 6 1 2 2 4 5 6 8 5 3 5 8 5 5 5 4 4 3 7 2 1 1 3 2 2 4 1 5 6 5 7 5 8 8 7 5 7 9 9 7 6 6 6 3 4 4 4 5 7 6 5 5 2 7 12 11 10 12 11 10 10 10 9 8 6 5 7 1 6 3
20 17 14 12 10 10 9 8 6 7 11 10 6 7 9 9 9 9 8 5 1 4 5 6 5 6 2 2 5 10 3 5 4 4 4 7 7 2 2 1 1 3 1 1 3 5 2 5 5 6 5 7 9 6 7 8 6 7 5 4 5 3 1 2 4 3 6 5 3 6 5 6 9 9 8 10 9 6 7 8 8 9 8 8 6 6 7 4
21 18 13 12 10 9 8 6 5 5 7 5 9 9 8 9 11 12 9 6 1 5 5 6 6 5 5 3 5 6 5 4 5 6 5 9 4 2 2 2 2 3 1 3 2 4 2 3 6 7 4 5 9 7 7 6 5 8 6 4 5 4 4 4 2 2 6 3 3 6 3 2 7 8 6 5 5 5 6 7 7 7 7 6 5 9 7 6
22 18 13 12 10 8 10 9 6 4 4 1 8 8 9 9 11 11 8 6 2 5 4 2 3 5 5 4 7 3 4 3 6 6 6 8 7 3 1 1 3 4 2 3 2 1 3 5 5 9 5 4 7 7 9 7 3 4 3 6 8 7 6 7 5 4 4 2 3 3 3 2 5 7 7 8 8 8 9 9 7 5 4 5 5 7 7 6
21 18 13 11 10 9 10 6 4 6 5 3 8 8 8 9 10 10 7 5 2 4 4 3 2 2 3 3 5 4 2 3 8 4 3 3 6 4 1 1 1 3 6 4 2 2 4 3 2 5 6 5 4 4 8 8 5 2 2 7 10 9 10 9 8 6 4 4 3 4 3 3 4 4 3 8 8 6 5 6 9 6 4 5 4 6 7 5
21 17 12 9 10 11 7 4 7 9 5 6 7 8 8 8 9 8 6 3 3 2 1 4 2 2 3 2 4 4 1 4 3 2 5 3 5 3 2 2 2 3 5 2 0 2 6 7 5 6 7 4 4 4 7 9 7 2 4 9 11 10 11 10 9 7 3 5 5 4 5 3 2 3 0 3 3 4 1 3 8 8 7 6 5 6 8 6
21 17 11 7 8 9 7 8 11 9 7 8 7 8 8 8 8 5 5 1 4 2 1 4 2 2 4 3 3 4 4 4 2 5 5 2 5 6 3 4 5 4 2 5 1 3 5 8 8 9 7 4 6 6 8 8 8 6 9 9 9 9 9 9 8 6 5 6 4 3 4 4 0 3 2 4 2 2 5 7 5 4 4 6 5 6 8 8
21 16 10 6 5 6 7 9 9 8 10 9 9 9 9 9 6 4 4 2 2 2 1 2 1 2 7 5 3 5 4 2 3 4 1 3 2 7 4 7 3 3 3 5 5 5 4 6 6 8 6 6 7 6 6 6 7 7 8 8 7 7 6 6 6 5 7 5 4 4 4 5 3 3 2 5 3 3 7 6 4 4 2 3 5 5 7 8
20 14 9 5 4 5 7 6 5 7 9 9 10 11 10 7 4 5 2 2 1 2 1 1 1 1 6 3 5 4 3 3 2 2 1 3 3 3 3 4 7 1 5 3 5 4 2 2 1 4 5 6 7 7 3 2 7 7 7 7 6 5 4 5 4 4 5 3 5 6 3 5 3 3 3 5 3 3 6 5 2 4 2 2 4 4 6 6
18 12 7 4 4 5 6 4 4 9 9 11 12 11 9 4 4 5 2 2 1 1 2 2 0 2 5 2 5 2 2 4 1 2 1 4 3 1 3 1 5 2 2 1 4 2 4 5 2 4 4 6 8 7 2 4 6 6 5 5 5 4 3 2 1 1 2 3 4 5 3 4 3 4 5 7 2 2 5 5 7 5 5 4 6 6 6 7
15 10 5 5 5 4 5 6 9 11 10 11 11 7 6 4 5 3 3 2 3 1 1 1 2 2 1 2 3 1 1 4 3 4 4 1 2 5 4 4 3 2 1 1 3 1 2 3 2 3 3 6 9 7 2 1 4 5 5 5 4 4 3 2 2 1 2 3 4 4 5 4 4 5 6 6 3 3 6 4 9 11 8 7 9 9 7 8
12 8 5 5 5 4 5 8 9 10 10 10 8 4 4 5 3 3 3 0 1 2 2 1 2 4 3 1 2 2 1 2 3 3 3 3 2 4 4 5 4 5 3 3 2 1 2 4 2 2 2 5 9 6 5 5 6 6 5 5 5 4 4 4 4 4 4 5 7 6 6 3 3 3 6 7 6 7 7 5 6 6 4 4 6 7 6 5
9 6 5 5 5 5 6 6 7 10 10 8 6 4 5 5 2 1 2 2 4 2 1 1 1 1 2 3 6 3 2 3 3 2 1 2 1 4 4 5 5 7 5 4 2 3 2 3 4 7 5 6 8 6 6 7 6 6 5 5 5 5 4 5 5 5 5 7 8 7 6 3 3 5 7 7 7 9 9 9 11 9 4 2 4 3 3 4
6 4 4 4 5 5 4 4 6 8 8 5 5 5 5 4 2 2 3 5 4 1 0 2 3 4 4 4 5 4 2 3 2 3 1 2 3 4 3 5 7 8 6 5 4 4 4 4 6 5 4 6 7 6 7 7 5 5 6 5 4 5 4 4 3 4 5 5 5 4 4 4 5 7 7 7 8 10 10 10 10 5 4 4 6 4 2 6
6 4 4 5 6 4 3 3 4 6 6 5 5 5 3 3 3 4 3 3 3 2 0 1 3 4 1 5 3 1 1 1 3 2 1 3 4 4 4 5 7 8 6 5 4 4 4 3 3 2 3 5 7 5 5 6 4 5 5 4 5 4 5 5 2 2 4 5 2 3 4 4 4 5 6 6 7 7 5 5 6 6 0 3 3 2 5 7
9 4 6 7 6 4 3 2 3 5 5 5 5 5 5 4 3 4 3 1 3 4 2 2 0 2 2 1 3 3 3 2 1 1 1 2 2 3 5 5 6 8 6 5 4 4 4 1 3 4 2 5 4 3 2 3 5 5 5 6 5 3 1 3 3 1 3 5 3 4 5 5 4 2 3 5 6 6 5 4 3 4 1 2 4 4 4 3
11 7 9 6 5 5 2 1 3 5 4 4 6 7 7 3 3 3 2 2 2 1 3 3 1 1 3 1 2 2 1 1 0 2 1 2 1 3 3 5 7 6 3 5 4 3 4 2 3 3 3 3 2 3 2 1 1 4 4 4 3 2 1 3 4 3 5 5 4 6 7 6 4 4 5 7 9 9 7 6 5 4 3 3 5 3 4 1
9 6 5 4 6 4 3 2 4 5 4 5 7 5 4 2 2 3 3 2 2 2 3 3 2 1 3 2 3 0 1 3 3 3 2 1 1 2 3 4 4 3 2 5 4 2 3 4 1 2 2 2 0 2 3 2 1 3 4 3 2 3 3 4 3 2 5 5 4 6 6 3 4 5 7 8 9 8 7 7 7 7 7 6 4 2 3 3
7 5 2 6 6 5 3 3 4 5 5 6 6 3 2 2 2 3 2 3 2 1 2 3 1 1 3 2 2 1 1 3 4 3 2 1 2 2 5 5 2 3 2 4 2 3 3 4 1 0 1 2 1 4 6 5 4 5 4 4 5 4 3 3 2 1 4 5 4 5 5 3 5 6 7 8 8 7 7 7 6 7 7 8 6 4 3 4
7 5 2 6 5 5 4 4 4 5 5 5 7 5 3 4 2 4 1 3 3 1 2 4 3 2 3 2 0 2 1 3 3 3 2 1 1 2 6 5 2 4 5 4 1 4 3 3 5 4 1 3 3 4 5 3 3 4 5 5 5 5 4 4 2 3 4 5 4 4 5 2 4 4 6 7 7 7 8 8 6 6 7 7 7 6 5 4
6 3 4 7 6 6 3 5 4 5 6 5 6 3 2 4 2 2 3 3 5 2 1 3 3 2 2 3 3 2 2 4 3 2 1 2 5 5 5 4 2 3 5 4 4 5 2 2 5 4 2 3 3 4 4 3 2 1 2 4 5 5 5 4 4 5 6 6 5 5 4 1 4 4 5 5 5 5 7 7 6 6 7 6 6 6 6 4
5 2 4 8 7 6 4 6 5 6 6 4 3 1 2 2 4 2 3 5 4 2 1 0 1 1 1 2 3 2 1 3 4 3 1 3 7 7 5 3 2 3 4 5 5 4 2 2 4 5 2 5 5 5 3 2 0 2 1 4 5 5 5 5 5 4 5 6 5 5 3 2 4 2 4 5 6 7 6 6 8 7 6 6 6 6 6 4
5 4 2 6 7 6 5 6 6 6 6 4 4 3 0 2 4 2 1 5 4 1 2 2 2 1 0 2 0 1 0 2 4 3 3 2 7 5 3 3 2 3 3 5 5 3 3 2 3 6 3 4 5 2 2 2 0 0 3 5 4 4 6 5 5 4 4 5 6 5 5 3 3 2 5 6 7 7 7 7 7 7 6 6 6 5 5 5
5 5 3 5 8 6 6 7 6 5 6 5 6 5 4 4 4 4 5 3 2 1 1 1 3 3 1 2 1 1 1 2 3 2 2 1 5 4 2 3 0 4 8 7 6 4 3 4 4 5 4 2 2 1 1 2 2 2 4 4 3 4 5 4 5 4 3 6 7 5 4 6 6 8 9 8 6 7 8 8 7 6 6 7 5 4 4 5
3 4 4 4 7 6 6 7 7 7 7 7 5 6 7 6 4 3 6 4 0 1 2 1 2 4 3 1 1 2 3 4 3 2 2 1 3 4 2 2 3 7 9 7 4 3 3 4 4 3 4 4 3 3 3 4 5 3 3 5 4 4 4 4 4 4 4 7 6 3 7 10 10 10 10 9 7 6 7 7 7 7 6 6 6 4 4 5
3 4 4 2 3 5 6 7 8 7 7 6 4 4 7 8 4 5 5 3 1 3 4 3 1 3 3 2 2 3 3 6 4 3 4 3 3 5 2 2 3 8 6 1 2 1 4 4 2 2 4 4 3 3 3 4 4 3 4 5 3 4 5 3 4 5 6 6 6 5 12 12 10 11 10 7 7 5 6 7 7 7 6 6 6 5 6 6
4 4 3 2 1 5 5 5 6 8 9 8 4 3 7 9 6 5 4 4 4 3 4 4 4 4 4 5 3 2 3 4 3 2 5 3 4 4 2 2 3 8 4 3 3 2 4 5 1 1 4 4 2 2 2 3 3 3 4 4 4 5 4 2 4 7 6 5 7 10 14 13 11 11 8 7 7 5 6 5 4 4 5 6 7 7 7 7
4 5 4 5 4 7 5 6 7 9 10 8 6 5 7 8 8 6 5 4 5 4 5 4 4 7 6 7 4 3 3 3 2 2 5 3 2 3 2 2 4 8 4 3 2 1 2 3 2 2 4 5 5 4 2 3 4 4 5 6 5 3 2 3 4 7 6 6 9 11 13 14 10 6 6 6 4 5 4 5 4 3 4 6 7 7 7 7
4 4 5 7 7 7 7 7 7 7 7 6 6 7 7 8 9 6 5 5 5 4 6 6 5 8 8 8 7 5 4 3 2 2 3 4 2 2 3 3 3 6 4 3 2 1 1 1 3 3 5 6 7 7 5 4 6 6 6 6 2 3 4 1 2 3 4 6 8 9 11 12 6 4 5 5 4 5 5 6 7 5 3 5 6 7 7 7
7 4 3 4 6 7 7 6 6 6 6 6 6 7 7 8 9 8 5 6 6 5 5 7 7 7 7 6 8 6 4 2 2 3 3 4 4 3 3 3 2 4 4 3 3 3 2 2 2 2 5 6 5 8 6 5 7 9 9 7 4 5 2 1 2 3 4 3 5 6 7 8 5 7 8 6 6 8 8 8 7 6 5 5 6 6 7 7
9 5 3 3 6 7 7 7 6 6 6 6 7 7 8 8 9 8 5 6 6 7 5 5 5 5 5 5 5 4 2 1 2 3 3 4 6 5 3 3 2 3 3 4 4 3 4 4 3 3 5 4 3 6 4 4 6 7 6 7 9 6 5 5 5 6 7 6 3 4 6 6 7 9 8 7 8 8 8 6 5 4 4 4 4 4 6 5
Wind_Direction
18 16 17 17 16 13 10 9 7 6 1 355 344 336 332 331 332 332 333 331 332 333 332 333 330 328 322 303 279 258 234 230 251 238 226 273 342 3 297 289 275 244 226 263 275 270 231 207 228 230 231 229 237 238 201 137 74 70 71 72 170 176 184 179 158 103 98 105 89 45 68 92 101 106 105 95 85 86 83 80 84 79 82 92 103 109 114 122
18 15 15 14 14 10 5 1 358 356 351 343 337 336 334 332 333 333 333 333 334 336 337 336 331 334 339 343 330 292 256 251 259 245 193 26 32 82 49 204 226 223 252 287 294 276 236 199 215 219 229 238 244 203 143 82 78 93 99 110 196 171 177 151 138 115 101 126 136 271 295 105 116 121 122 114 104 100 94 96 95 92 93 87 85 80 87 102
16 13 13 13 12 7 1 355 350 348 343 337 336 336 334 334 335 335 336 338 340 342 344 341 341 348 357 10 358 313 293 268 261 238 70 48 86 99 182 210 242 279 287 288 300 302 299 280 223 207 246 244 234 147 121 88 82 102 113 120 211 156 162 167 137 120 113 123 146 167 151 114 106 105 115 114 113 113 105 111 114 112 117 108 97 102 105 102
14 12 11 12 10 4 357 349 344 342 338 336 336 336 335 336 337 338 341 344 347 347 346 347 348 346 349 352 339 332 286 272 273 93 86 5 49 246 274 291 283 300 299 289 296 307 309 295 255 214 265 258 205 149 117 102 103 119 117 128 168 176 155 191 200 124 125 139 160 169 130 105 84 79 91 101 114 117 121 137 136 131 130 129 132 127 119 116
14 12 11 11 8 3 354 347 343 339 336 336 336 336 335 335 338 340 341 344 345 345 345 346 343 338 342 335 332 337 281 283 84 92 81 300 264 268 289 290 288 303 294 289 295 296 273 277 272 239 262 237 192 159 110 96 101 125 134 145 157 176 151 201 227 133 140 167 154 129 99 97 90 86 80 105 142 130 138 154 135 133 135 136 139 127 126 150
13 11 12 11 7 2 354 346 340 337 336 334 335 336 335 335 336 337 337 339 340 340 342 340 337 335 332 323 328 280 264 47 86 83 50 282 255 263 280 280 285 289 280 286 288 276 252 256 260 251 247 183 180 115 97 91 100 135 154 163 162 174 173 202 213 132 132 164 135 124 119 107 94 94 79 106 149 127 139 148 131 136 139 134 135 143 161 162
12 12 13 12 8 3 354 346 339 338 335 334 335 334 335 334 332 334 332 335 336 334 336 333 335 330 318 322 324 225 241 70 84 80 47 270 274 263 269 278 275 274 271 275 274 263 245 250 255 254 250 177 131 95 98 112 142 148 140 147 152 174 172 180 174 126 134 164 157 134 120 114 102 103 86 82 159 133 137 141 135 139 139 137 143 157 152 123
12 12 14 13 10 4 355 348 341 338 335 334 333 331 334 332 330 330 325 332 336 334 335 330 327 313 311 314 262 223 80 70 87 110 48 276 276 270 280 266 250 252 259 266 275 276 252 261 274 283 342 88 100 93 98 114 130 119 121 115 126 177 151 149 152 135 159 168 157 121 115 120 103 91 88 99 205 138 131 136 136 138 143 146 147 144 127 113
11 13 14 14 10 5 360 353 346 341 337 332 329 330 331 328 328 323 321 330 332 332 327 316 315 311 318 291 269 344 75 77 93 118 82 27 262 259 269 268 243 232 254 267 276 282 283 298 311 298 327 75 89 94 97 94 98 136 151 121 120 211 160 162 162 143 160 143 123 116 108 113 105 99 105 158 168 123 126 133 133 138 153 155 143 136 130 128
10 12 12 14 11 9 6 359 353 343 335 328 326 328 326 326 325 318 317 325 326 320 308 304 311 314 311 276 270 72 89 97 103 124 208 194 254 253 243 258 260 246 264 270 256 281 308 318 328 273 232 96 89 100 107 117 162 169 139 122 180 218 172 165 155 135 146 118 113 108 90 88 97 104 118 153 141 118 124 125 134 148 161 159 143 139 140 137
8 10 11 12 11 12 10 4 357 344 336 327 325 326 325 325 319 317 317 317 315 302 298 300 308 318 298 272 281 84 178 244 113 125 138 211 248 282 272 264 276 274 285 274 236 290 314 311 312 267 62 44 32 86 130 164 170 144 106 129 204 227 162 149 138 131 157 111 97 98 90 83 87 92 122 153 157 147 131 136 159 159 158 155 143 142 142 137
6 9 9 10 12 14 12 7 357 346 337 326 326 326 326 327 318 317 309 303 307 300 302 305 315 330 300 272 74 82 160 151 108 129 126 220 243 291 310 303 289 288 298 294 300 41 321 293 284 256 75 52 357 347 124 158 160 112 91 96 355 357 1 223 99 121 235 105 111 117 95 69 81 90 111 130 135 143 138 156 167 154 153 148 141 144 141 141
4 6 7 8 11 13 13 9 358 346 337 330 330 327 330 334 318 307 296 292 294 296 303 306 316 319 292 21 74 22 92 105 132 164 145 182 197 138 339 322 292 286 290 305 340 30 281 272 293 343 93 148 146 334 23 58 83 81 66 38 19 11 337 328 349 345 237 102 135 168 112 72 84 85 95 92 97 121 127 166 158 141 151 142 139 145 141 151
1 3 4 6 8 11 12 8 0 347 335 330 333 336 340 338 317 295 290 284 283 293 301 301 305 295 270 86 83 55 76 155 184 174 172 209 189 139 99 256 271 286 272 292 329 338 261 272 298 1 103 348 88 155 354 29 40 62 42 3 52 26 311 316 316 300 339 48 213 217 130 126 120 95 106 116 124 116 113 175 145 139 159 145 151 156 152 162
360 0 0 1 4 8 8 6 2 350 336 329 332 342 344 330 236 219 238 257 270 282 292 297 294 276 216 109 106 134 197 229 199 138 292 276 257 142 134 281 234 286 274 284 322 216 258 272 281 11 60 7 356 312 45 38 24 47 35 333 107 105 270 280 287 285 289 206 242 220 117 133 132 124 121 125 142 130 139 201 165 166 167 147 155 152 157 166
357 357 357 357 358 3 5 4 1 355 345 330 327 331 324 212 211 220 227 243 252 260 275 289 268 239 192 80 116 178 209 219 86 146 268 309 323 87 118 61 168 217 273 300 294 196 240 270 290 8 354 301 226 61 51 41 25 38 17 276 159 170 248 255 269 271 241 201 236 192 130 136 142 150 142 138 137 114 166 189 185 234 195 180 176 155 167 170
354 354 354 353 354 358 1 2 360 356 352 339 325 292 247 225 218 218 228 239 247 258 262 270 268 239 143 74 132 191 178 68 43 242 189 316 332 354 183 211 162 159 206 190 226 213 228 289 317 359 292 292 100 103 61 359 48 299 222 196 186 191 234 225 259 275 286 303 283 110 109 124 138 148 146 163 150 132 191 187 185 219 263 254 215 206 191 170
353 350 349 350 352 352 356 2 0 357 357 348 321 295 283 275 256 245 245 241 244 262 261 263 283 356 88 124 133 73 61 81 110 212 176 187 296 279 285 289 172 188 202 186 213 238 222 298 294 287 278 303 286 148 220 284 191 212 223 195 195 195 211 227 282 297 280 289 319 80 97 126 136 144 148 167 158 152 182 187 189 202 281 303 264 254 222 175
353 347 345 346 347 349 354 359 2 359 357 350 318 301 286 277 268 261 247 235 239 267 283 272 301 63 68 105 106 69 78 149 184 161 192 230 192 270 307 322 211 245 252 195 203 274 263 257 343 353 322 312 347 110 320 307 232 221 264 303 334 72 199 208 329 22 302 283 349 90 117 141 142 151 155 163 169 172 187 177 161 206 242 285 275 300 288 226
355 347 341 340 343 347 351 359 6 358 348 335 321 298 283 279 258 256 232 225 309 33 38 28 63 80 61 90 122 169 156 186 213 109 86 4 240 250 239 205 240 278 293 280 317 325 306 342 11 334 268 315 2 14 341 329 315 299 303 330 19 21 13 72 55 25 304 283 297 124 146 151 152 159 156 161 178 188 193 181 179 200 216 282 280 28 301 276
355 347 340 336 337 341 347 360 5 358 343 320 307 293 352 15 18 9 347 150 44 49 74 58 72 70 28 32 47 276 216 100 61 79 94 209 259 265 165 257 266 214 253 280 319 353 354 10 304 278 314 335 352 349 330 320 309 323 344 354 11 22 17 18 22 237 244 265 273 199 159 141 149 154 147 150 181 201 200 189 187 189 157 312 286 54 23 308
355 349 342 332 330 335 342 357 3 5 346 318 304 332 40 20 8 0 332 312 58 16 85 103 112 84 37 33 32 316 293 76 71 107 101 290 273 260 106 315 292 287 269 256 7 28 3 321 282 321 5 333 313 307 311 314 316 346 9 351 345 23 51 351 282 251 255 263 283 300 18 117 139 151 160 164 184 204 198 193 192 183 168 209 249 52 69 350
354 349 343 333 329 327 331 353 3 352 333 330 14 35 22 9 356 350 313 282 35 29 43 45 57 72 45 73 11 322 350 58 6 72 58 302 287 304 353 27 290 289 288 313 55 74 334 295 310 0 3 307 308 311 310 317 343 11 356 327 338 353 89 246 267 302 291 273 327 356 45 121 141 152 177 181 185 204 203 201 196 183 187 202 190 116 108 130
353 348 343 337 326 316 323 328 315 312 307 339 47 26 1 6 354 352 329 280 142 75 57 31 35 54 27 11 313 320 77 61 3 57 3 317 340 25 326 11 331 299 24 31 53 143 163 9 359 333 297 302 321 329 346 344 8 22 352 295 304 294 241 247 285 286 268 265 49 27 26 172 163 164 190 205 202 222 227 225 211 186 188 192 130 111 135 159
351 346 342 339 327 310 308 299 288 291 272 342 45 11 351 5 355 354 334 279 137 103 135 85 28 50 31 301 290 342 107 86 43 44 353 345 356 343 264 49 11 330 21 48 349 84 49 32 345 312 317 353 335 348 13 359 337 15 344 286 309 327 314 307 311 278 271 316 92 96 310 291 137 149 175 193 202 209 216 215 198 191 210 202 154 138 163 177
349 346 342 339 331 311 298 294 325 312 283 54 42 352 345 359 350 351 321 269 91 94 144 118 340 19 33 293 325 360 201 80 50 21 347 350 331 335 351 2 110 350 11 35 10 8 14 20 2 332 345 350 339 9 17 357 323 339 340 315 326 331 314 311 318 310 324 354 60 85 312 310 53 47 136 173 187 191 222 201 158 170 240 229 184 156 165 173
348 346 340 340 338 329 317 319 329 313 316 53 27 334 347 354 343 346 303 259 77 25 56 73 27 9 16 313 325 308 271 57 68 52 31 347 305 283 263 325 78 61 19 348 336 6 352 6 19 351 344 349 359 19 15 352 320 345 17 335 328 321 313 324 327 313 344 3 6 11 308 298 19 324 124 143 175 161 146 90 129 166 204 204 192 168 163 166
347 344 338 342 344 343 342 326 321 328 5 24 351 330 346 342 334 319 286 343 62 316 356 61 47 309 275 250 2 16 64 14 298 89 64 310 324 303 274 39 40 69 19 299 19 86 357 6 4 344 340 10 8 359 11 341 300 350 9 337 316 309 310 319 314 309 343 347 326 325 303 302 249 186 139 67 47 95 86 71 88 138 167 181 194 185 175 175
346 342 335 340 353 355 350 329 318 338 2 357 337 332 332 329 325 279 269 26 54 249 79 70 130 258 247 211 67 53 96 1 347 79 178 216 27 314 343 41 340 134 83 339 36 73 27 8 351 343 342 7 4 339 357 334 303 339 336 300 282 282 289 302 315 337 337 331 326 345 338 311 350 100 70 56 41 29 81 80 49 64 90 179 181 184 187 189
345 340 331 331 357 351 330 306 300 335 351 342 333 326 313 310 288 264 279 73 126 138 143 242 139 298 270 218 85 67 93 72 86 150 232 113 105 288 26 17 286 188 87 30 52 64 76 113 13 17 360 348 334 301 281 303 307 311 295 293 302 309 338 334 351 6 325 326 317 311 292 286 325 66 47 63 39 357 93 112 72 45 345 235 167 191 200 202
344 337 326 308 317 325 302 294 351 352 345 336 332 317 299 286 246 264 30 118 214 98 214 239 60 277 280 354 70 96 102 69 19 266 132 131 138 76 69 307 284 10 86 132 84 116 176 155 118 59 21 337 323 308 215 204 268 290 308 335 334 332 13 319 278 149 277 320 297 280 276 292 334 39 50 85 88 346 82 119 135 152 242 222 183 200 198 205
342 332 316 293 297 304 298 325 352 345 336 334 329 306 285 270 245 275 67 174 233 5 305 314 26 1 339 29 58 54 23 57 1 339 29 34 64 61 26 3 2 11 355 33 59 147 161 91 83 110 73 346 336 337 1 271 302 322 341 352 341 345 5 335 336 343 328 356 330 332 355 356 47 26 25 85 101 54 59 81 129 157 205 212 197 192 191 212
341 326 306 288 284 278 291 314 331 335 338 331 313 283 276 289 305 7 34 222 131 44 327 329 18 27 30 323 61 73 305 27 354 350 40 328 3 78 61 41 358 315 350 7 355 309 101 93 49 43 70 353 350 356 0 2 341 332 349 352 350 3 356 353 356 341 354 352 338 359 6 12 93 28 16 56 64 74 82 64 78 112 170 203 199 176 177 196
340 325 305 290 278 270 285 306 322 334 335 318 289 264 265 281 315 342 315 50 93 163 241 89 203 116 83 9 26 14 287 43 14 301 198 255 25 72 86 77 11 338 346 333 341 343 335 99 43 9 16 359 6 14 354 343 315 327 360 336 343 26 1 349 355 347 0 342 335 10 21 9 64 45 33 51 60 70 76 66 52 35 5 349 22 68 148 134
334 318 303 293 278 267 277 298 320 332 326 303 274 261 257 274 312 346 8 42 64 158 27 33 263 227 151 98 40 360 331 45 6 287 326 17 40 32 25 48 23 0 346 338 1 335 325 82 70 26 32 11 7 11 349 335 319 345 347 317 3 31 342 319 319 327 333 315 324 17 19 16 50 52 39 42 60 60 53 65 77 60 348 2 34 10 9 64
326 303 275 262 248 238 245 266 303 326 314 287 265 264 278 307 340 9 24 20 7 359 320 252 259 259 139 113 109 127 202 345 329 289 81 52 52 46 39 39 9 353 351 347 347 333 337 79 79 33 80 49 10 353 348 347 339 333 328 349 17 354 328 334 294 238 278 294 338 6 359 33 51 47 34 28 50 55 37 63 105 124 242 342 64 5 356 60
333 301 274 258 216 187 207 247 298 300 285 278 270 280 308 331 6 8 25 25 355 359 304 264 348 336 328 115 135 148 171 199 278 278 150 115 86 45 60 74 27 2 357 342 343 7 346 335 70 29 73 85 29 317 298 349 341 335 347 4 341 282 271 337 306 274 307 320 1 343 351 38 30 15 35 24 31 30 27 51 91 121 143 331 72 47 346 81
327 289 279 260 167 152 192 236 303 282 263 267 261 260 279 311 46 7 351 9 340 310 255 266 29 352 287 275 98 110 213 257 191 285 295 124 103 360 34 70 46 17 345 318 325 24 343 299 93 28 353 81 60 268 223 191 346 354 344 337 328 314 329 327 329 350 335 330 344 338 354 34 29 13 27 25 22 14 12 22 15 23 17 15 94 102 300 237
304 271 263 184 150 159 199 254 291 273 250 256 261 256 263 267 67 29 340 332 319 234 250 296 26 290 274 348 21 349 279 319 325 306 318 72 62 9 36 51 32 16 338 310 321 35 339 302 114 46 15 90 148 317 12 20 11 353 320 308 353 349 331 332 335 331 327 327 336 341 349 44 52 19 26 30 22 7 4 16 9 358 1 12 72 103 308 292
282 267 166 138 148 165 189 268 273 255 246 250 265 290 324 291 94 64 342 293 287 274 311 346 49 271 287 315 331 8 57 321 317 323 351 80 153 111 71 60 6 343 318 281 336 43 330 304 343 32 133 125 72 25 26 12 353 343 341 357 357 346 331 304 277 331 345 327 329 339 341 59 66 20 23 28 9 351 357 17 13 353 1 6 5 20 348 322
280 280 154 145 163 168 188 261 244 240 246 245 260 275 336 354 71 105 99 272 280 291 343 325 330 14 337 302 355 55 16 286 285 293 297 89 104 80 73 72 350 319 306 279 52 49 351 319 316 301 96 84 57 39 25 27 22 342 343 360 352 353 350 310 290 33 5 324 324 321 313 43 66 16 21 22 357 346 359 12 6 351 12 13 357 9 6 360
261 275 146 162 179 175 214 255 233 245 251 247 270 281 33 355 289 140 132 217 263 247 175 304 325 25 351 348 32 33 301 271 278 292 290 67 58 60 84 76 350 294 298 314 74 71 12 294 287 297 75 99 100 78 51 52 73 339 330 1 357 3 6 336 327 357 341 313 311 304 293 82 72 23 19 11 352 358 3 3 354 359 24 20 6 14 7 32
253 295 139 163 180 181 231 257 241 249 248 246 286 323 94 253 246 184 151 195 242 278 182 172 84 102 323 18 15 332 299 294 313 354 22 84 80 77 88 68 316 269 294 335 55 65 339 264 266 284 207 145 122 96 86 76 88 203 143 37 7 2 8 339 318 329 317 308 320 321 319 85 95 31 17 18 3 359 4 5 360 6 23 12 9 15 3 23
304 309 166 167 183 192 227 244 238 246 245 239 261 269 275 259 260 275 196 201 208 240 244 222 127 111 39 90 49 292 120 288 306 332 325 36 92 93 87 95 298 308 18 19 19 13 308 291 298 294 262 146 127 126 147 130 313 170 75 52 31 9 359 333 307 286 282 336 357 321 306 38 74 337 353 21 10 349 353 10 4 360 5 358 359 5 353 349
309 281 234 175 185 204 231 246 264 287 283 261 248 252 246 238 257 297 303 264 209 206 262 226 128 126 109 100 140 235 184 252 291 290 290 25 105 122 99 109 332 8 55 48 1 333 311 314 316 311 319 1 46 359 27 20 354 58 57 36 31 18 359 336 318 293 291 351 349 314 319 354 350 335 341 1 13 357 350 357 353 349 358 350 340 355 352 341
310 268 248 186 184 207 238 258 276 289 291 281 256 249 251 236 205 237 279 292 321 298 304 333 118 132 124 99 172 221 208 217 263 281 245 226 106 110 127 161 114 73 62 41 352 316 294 287 284 299 321 343 15 23 14 348 341 10 12 351 356 354 335 324 310 302 336 335 312 348 12 344 331 340 338 345 14 11 344 344 346 347 357 348 335 349 341 319
285 285 278 216 193 214 224 242 251 246 260 279 270 233 244 248 205 178 221 256 279 264 257 261 238 161 150 169 229 242 219 207 222 277 271 232 109 98 130 250 114 103 88 15 210 233 286 267 223 232 279 300 346 3 351 336 331 335 331 328 326 307 306 318 295 296 331 323 281 339 357 336 324 330 326 347 26 10 335 345 347 342 345 341 334 338 331 325
276 289 313 16 265 234 225 243 257 249 245 253 264 241 237 245 229 172 180 245 268 254 236 236 251 240 185 168 210 248 241 232 210 235 266 232 130 118 164 237 160 131 132 244 188 155 292 279 161 156 256 271 278 278 300 310 307 306 304 299 292 282 265 226 259 282 298 288 281 317 331 318 312 320 339 22 25 340 327 326 310 318 334 334 332 334 338 340
314 307 336 2 305 274 293 320 306 276 251 240 241 241 238 244 239 198 177 236 257 238 238 240 248 258 220 167 183 235 216 237 247 231 263 268 131 139 204 219 159 140 157 246 189 99 298 299 13 341 280 266 247 244 256 276 284 284 278 279 285 305 286 221 244 273 284 286 290 305 308 298 298 330 8 18 337 300 309 306 301 340 349 326 324 333 347 347
341 339 339 342 316 289 296 306 298 281 263 250 243 239 236 241 245 226 185 204 234 228 240 247 245 260 243 178 175 224 215 211 254 247 257 275 264 200 231 249 174 158 185 214 167 139 226 317 355 311 282 265 232 219 224 250 270 271 268 271 278 48 30 354 266 278 289 292 290 297 298 289 294 11 358 335 316 313 333 337 336 355 357 328 331 343 349 348
342 321 299 311 309 303 295 274 258 264 264 251 242 240 239 236 242 243 206 189 218 229 234 245 247 261 261 205 182 210 233 212 232 239 225 234 240 221 223 253 197 178 196 202 178 175 200 272 290 243 274 282 221 200 221 255 265 263 254 234 178 121 108 222 204 209 202 223 278 291 284 278 315 360 337 330 346 342 345 350 347 357 3 350 349 344 338 344
349 310 269 278 285 297 296 270 244 244 250 252 248 238 236 240 242 242 219 183 209 236 244 252 255 261 265 241 199 203 222 184 229 277 276 250 251 245 239 266 263 218 210 198 191 196 217 252 263 240 272 292 172 171 216 268 265 268 254 203 178 171 199 214 221 225 204 186 220 264 261 281 324 335 318 330 352 343 339 342 338 344 344 340 348 329 322 343